EW2918 Weather Reports


time (UTC)temp
C
wind
direction
speed
KPH
gust
KPH
rain 1hr
cm
rain 24hr
cm
rain mn
cm
humidity
%
barometer
mb
20260509013308 16 196 0.0 0.0 0.00 0.00 0.00 76 981.0
20260509011806 16 207 0.0 0.0 0.00 0.00 0.00 76 980.8
20260509011308 16 207 0.0 0.0 0.00 0.00 0.00 75 980.8
20260509010808 16 207 0.0 0.0 0.00 0.00 0.00 75 980.7
20260509010308 17 207 0.0 0.0 0.00 0.00 0.00 76 980.8
20260509004807 17 202 0.0 0.0 0.00 0.00 0.00 75 980.7
20260509004306 17 202 0.0 0.0 0.00 0.00 0.00 75 980.6
20260509003806 18 202 0.0 0.0 0.00 0.00 0.00 74 980.7
20260509003306 18 202 0.0 0.0 0.00 0.00 0.00 72 980.7
20260509001806 18 202 0.0 0.0 0.00 0.00 0.00 69 980.7
20260509001307 18 202 0.0 0.0 0.00 0.00 0.00 63 980.6
20260509000806 18 202 0.0 0.0 0.00 0.00 0.00 71 980.6
20260509000311 18 202 0.0 0.0 0.00 0.00 0.00 66 980.5
20260508234306 19 202 0.0 1.6 0.00 0.00 0.00 58 980.2
20260508233808 19 202 0.0 1.6 0.00 0.00 0.00 58 980.3
20260508233308 19 202 0.0 1.6 0.00 0.00 0.00 57 980.3
20260508231808 19 289 0.0 0.0 0.00 0.00 0.00 58 980.5
20260508230807 20 293 0.0 1.6 0.00 0.00 0.00 57 980.3
20260508230316 20 210 0.0 1.6 0.00 0.00 0.00 56 980.3
20260508224308 20 213 0.0 1.6 0.00 0.00 0.00 55 980.3
20260508223808 20 252 0.0 0.0 0.00 0.00 0.00 61 980.3
20260508223308 20 252 0.0 1.6 0.00 0.00 0.00 57 980.4
20260508221808 20 198 0.0 0.0 0.00 0.00 0.00 58 980.4
20260508221310 20 198 0.0 1.6 0.00 0.00 0.00 54 980.3
20260508220807 20 198 0.0 3.2 0.00 0.00 0.00 53 980.3
20260508220311 20 199 0.0 3.2 0.00 0.00 0.00 53 980.2
20260508214809 20 217 0.0 0.0 0.00 0.00 0.00 53 980.1
20260508214306 20 356 0.0 3.2 0.00 0.00 0.00 51 980.2
20260508213808 20 356 0.0 3.2 0.00 0.00 0.00 52 980.3
20260508213306 20 203 0.0 3.2 0.00 0.00 0.00 51 980.3
20260508211808 20 191 0.0 1.6 0.00 0.00 0.00 51 980.4
20260508210807 20 195 0.0 1.6 0.00 0.00 0.00 51 980.3
20260508210313 21 217 0.0 3.2 0.00 0.00 0.00 51 980.1
20260508204808 20 182 0.0 3.2 0.00 0.00 0.00 50 980.3
20260508204307 20 116 0.0 3.2 0.00 0.00 0.00 48 980.3
20260508203806 20 191 0.0 3.2 0.00 0.00 0.00 52 980.4
20260508203307 20 189 0.0 3.2 0.00 0.00 0.00 51 980.3
20260508201307 21 264 0.0 0.0 0.00 0.00 0.00 49 980.6
20260508200311 21 264 0.0 1.6 0.00 0.00 0.00 48 980.8
20260508194806 21 225 0.0 3.2 0.00 0.00 0.00 48 980.9
20260508194306 21 88 0.0 3.2 0.00 0.00 0.00 47 981.0
20260508193809 21 182 0.0 3.2 0.00 0.00 0.00 48 981.2
20260508191807 21 349 0.0 0.0 0.00 0.00 0.00 49 981.4
20260508191306 21 349 0.0 0.0 0.00 0.00 0.00 51 981.4
20260508190807 21 349 0.0 1.6 0.00 0.00 0.00 49 981.4
20260508190307 21 349 0.0 3.2 0.00 0.00 0.00 49 981.5
20260508184806 21 356 0.0 4.8 0.00 0.00 0.00 48 981.7
20260508183807 21 192 0.0 3.2 0.00 0.00 0.00 47 982.0
20260508183308 20 15 0.0 3.2 0.00 0.00 0.00 49 982.0
20260508181807 21 200 0.0 3.2 0.00 0.00 0.00 47 982.2
20260508181307 21 190 0.0 4.8 0.00 0.00 0.00 48 982.3
20260508180806 21 190 0.0 4.8 0.00 0.00 0.00 48 982.5
20260508174808 21 204 0.0 3.2 0.00 0.00 0.00 46 982.5
20260508173809 21 256 0.0 1.6 0.00 0.00 0.00 47 982.7
20260508173309 21 201 0.0 1.6 0.00 0.00 0.00 47 982.7
20260508171307 21 352 0.0 4.8 0.00 0.00 0.00 46 983.0
20260508170807 21 173 1.6 4.8 0.00 0.00 0.00 48 983.1
20260508170307 21 196 0.0 3.2 0.00 0.00 0.00 46 983.2
20260508164806 20 240 0.0 1.6 0.00 0.00 0.00 52 983.4
20260508164307 20 234 0.0 3.2 0.00 0.00 0.00 50 983.4
20260508163807 20 28 0.0 4.8 0.00 0.00 0.00 48 983.5
20260508163307 20 342 0.0 4.8 0.00 0.00 0.00 49 983.6
20260508161307 20 27 1.6 4.8 0.00 0.00 0.00 52 983.7
20260508160809 19 212 0.0 3.2 0.00 0.00 0.00 53 983.8
20260508160305 20 219 1.6 3.2 0.00 0.00 0.00 48 983.8
20260508154807 20 344 0.0 4.8 0.00 0.00 0.00 52 984.1
20260508154306 20 344 0.0 4.8 0.00 0.00 0.00 47 984.2
20260508153807 20 192 0.0 4.8 0.00 0.00 0.00 49 984.2
20260508151307 19 224 0.0 1.6 0.00 0.00 0.00 57 984.3
20260508150807 18 224 0.0 4.8 0.00 0.00 0.00 59 984.3
20260508150310 18 212 0.0 4.8 0.00 0.00 0.00 53 984.3
20260508144806 18 231 0.0 1.6 0.00 0.00 0.00 57 984.2
20260508143807 18 225 0.0 0.0 0.00 0.00 0.00 56 984.2
20260508143307 17 225 0.0 0.0 0.00 0.00 0.00 60 984.2
20260508141807 17 225 0.0 0.0 0.00 0.00 0.00 66 984.4
20260508141307 16 225 0.0 1.6 0.00 0.00 0.00 64 984.5
20260508134806 15 336 0.0 0.0 0.00 0.00 0.00 71 984.6
20260508134307 15 336 0.0 0.0 0.00 0.00 0.00 73 984.7
20260508133806 15 336 0.0 0.0 0.00 0.00 0.00 76 984.7
20260508133306 15 336 0.0 0.0 0.00 0.00 0.00 69 984.7
20260508130806 13 216 0.0 0.0 0.00 0.00 0.00 85 984.4
20260508130307 13 216 0.0 0.0 0.00 0.00 0.00 82 984.3
20260508124806 12 216 0.0 0.0 0.00 0.00 0.00 88 984.2
20260508123807 12 216 0.0 0.0 0.00 0.00 0.00 89 984.2
20260508121806 11 216 0.0 0.0 0.00 0.00 0.00 92 984.0
20260508121308 11 216 0.0 0.0 0.00 0.00 0.00 94 983.9
20260508120810 11 216 0.0 0.0 0.00 0.00 0.00 94 983.9
20260508120311 11 216 0.0 0.0 0.00 0.00 0.00 95 983.8
20260508114306 10 216 0.0 0.0 0.00 0.00 0.00 95 983.6
20260508113806 10 216 0.0 0.0 0.00 0.00 0.00 94 983.4
20260508113306 10 216 0.0 0.0 0.00 0.00 0.00 94 983.4
20260508111809 10 216 0.0 0.0 0.00 0.00 0.00 95 983.0
20260508111308 10 216 0.0 0.0 0.00 0.00 0.00 96 982.9
20260508110807 10 216 0.0 0.0 0.00 0.00 0.00 96 982.9
20260508104807 10 216 0.0 0.0 0.00 0.00 0.00 96 982.5
20260508104306 10 216 0.0 0.0 0.00 0.00 0.00 95 982.4
20260508103807 10 216 0.0 0.0 0.00 0.00 0.00 95 982.5
20260508103306 10 216 0.0 0.0 0.00 0.00 0.00 95 982.4
20260508101808 10 216 0.0 0.0 0.00 0.00 0.00 95 982.1
20260508101306 10 216 0.0 0.0 0.00 0.00 0.00 94 982.0
20260508100807 10 216 0.0 0.0 0.00 0.00 0.00 93 982.0
20260508094807 10 216 0.0 0.0 0.00 0.00 0.00 93 981.6
20260508094307 10 216 0.0 0.0 0.00 0.00 0.00 92 981.5
20260508093810 10 216 0.0 0.0 0.00 0.00 0.00 92 981.6
20260508091307 11 216 0.0 0.0 0.00 0.00 0.00 90 981.5
20260508090314 11 216 0.0 0.0 0.00 0.00 0.00 91 981.3
20260508083807 11 216 0.0 0.0 0.00 0.00 0.00 92 981.4
20260508083307 11 216 0.0 0.0 0.00 0.00 0.00 92 981.3
20260508081306 11 216 0.0 0.0 0.00 0.00 0.00 93 981.4
20260508080807 11 216 0.0 0.0 0.00 0.00 0.00 92 981.3
20260508080315 11 216 0.0 0.0 0.00 0.00 0.00 92 981.3
20260508074809 11 216 0.0 0.0 0.00 0.00 0.00 91 981.3
20260508074306 11 216 0.0 0.0 0.00 0.00 0.00 90 981.4
20260508073807 11 216 0.0 0.0 0.00 0.00 0.00 89 981.3
20260508071808 11 216 0.0 0.0 0.00 0.00 0.00 90 981.2
20260508071306 11 216 0.0 0.0 0.00 0.00 0.00 90 981.3
20260508070311 11 216 0.0 0.0 0.00 0.00 0.00 90 981.0
20260508064810 11 216 0.0 0.0 0.00 0.00 0.00 89 980.8
20260508064306 11 216 0.0 0.0 0.00 0.00 0.00 88 980.9
20260508063809 11 216 0.0 0.0 0.00 0.00 0.00 88 980.9
20260508063309 11 216 0.0 0.0 0.00 0.00 0.00 86 980.9
20260508061808 12 216 0.0 0.0 0.00 0.00 0.00 86 980.8
20260508061307 12 216 0.0 0.0 0.00 0.00 0.00 85 980.8
20260508060807 12 216 0.0 0.0 0.00 0.00 0.00 85 980.8
20260508060309 12 216 0.0 0.0 0.00 0.00 0.00 83 980.9
20260508054807 12 216 0.0 0.0 0.00 0.00 0.00 82 981.0
20260508054307 12 216 0.0 0.0 0.00 0.00 0.00 80 981.0
20260508053806 13 216 0.0 0.0 0.00 0.00 0.00 79 981.1
20260508053308 13 216 0.0 0.0 0.00 0.00 0.00 80 981.0
20260508051306 13 223 0.0 0.0 0.00 0.00 0.00 81 980.9
20260508050806 13 216 0.0 0.0 0.00 0.00 0.00 81 981.0
20260508050308 13 216 0.0 0.0 0.00 0.00 0.00 81 980.8
20260508044807 13 216 0.0 0.0 0.00 0.00 0.00 82 980.6
20260508044306 13 216 0.0 0.0 0.00 0.00 0.00 81 980.6
20260508043806 13 216 0.0 0.0 0.00 0.00 0.00 81 980.6
20260508043307 13 216 0.0 1.6 0.00 0.00 0.00 79 980.6
20260508041807 13 106 0.0 0.0 0.00 0.00 0.00 83 980.4
20260508041307 13 106 0.0 0.0 0.00 0.00 0.00 84 980.3
20260508041146 13 106 0.0 0.0 0.00 0.00 0.00 81 980.2
20260508040308 13 106 0.0 0.0 0.00 0.00 0.00 83 980.3
20260508034806 13 106 0.0 0.0 0.00 0.00 0.00 77 980.6
20260508034307 13 106 0.0 0.0 0.00 0.00 0.00 77 980.5
20260508033807 13 106 0.0 0.0 0.00 0.00 0.00 78 980.5
20260508033308 14 106 0.0 0.0 0.00 0.00 0.00 78 980.4
20260508031807 14 106 0.0 0.0 0.00 0.00 0.00 76 980.4
20260508031309 14 106 0.0 0.0 0.00 0.00 0.00 78 980.4
20260508030313 14 106 0.0 0.0 0.00 0.00 0.00 77 980.2
20260508024808 15 106 0.0 1.6 0.00 0.00 0.00 76 980.2
20260508023806 15 198 0.0 0.0 0.00 0.00 0.00 76 980.0
20260508023307 15 198 0.0 0.0 0.00 0.00 0.00 78 979.9
20260508021806 15 198 0.0 1.6 0.00 0.00 0.00 75 979.6
20260508021306 15 198 0.0 1.6 0.00 0.00 0.00 76 979.5
20260508020808 15 352 0.0 1.6 0.00 0.00 0.00 74 979.6
20260508020310 15 352 0.0 1.6 0.00 0.00 0.00 73 979.4
20260508014806 15 200 0.0 3.2 0.00 0.00 0.00 76 979.2
20260508013807 16 353 0.0 4.8 0.00 0.00 0.00 77 978.9